RH
52 52 52 52 52 51 49 47 45 43 41 40 40 40 40 40 40 39 38 37 36 36 37 38 38 39 40 40 41 42 42 42 42 42 41 40 40 40 39 38 38 36 34 32 29 26 23 20 19 19 20 20 20 21 21 21 21 22 23 26 29 31 33 33 33 33 33 33 34
53 53 53 53 53 52 51 48 46 44 42 41 41 41 41 41 40 39 38 37 37 37 37 38 39 40 41 42 43 43 43 43 43 42 41 41 40 40 40 39 38 37 35 33 29 26 23 21 20 19 20 20 21 21 21 22 22 22 23 25 27 30 32 34 34 34 35 35 36
53 54 54 54 54 53 52 50 48 45 44 42 42 42 42 42 40 40 39 38 37 37 38 39 40 41 42 43 44 44 44 44 43 42 42 42 41 40 40 40 39 37 36 33 30 26 23 21 20 20 20 20 21 21 22 22 22 23 23 24 26 28 30 32 34 35 36 36 37
53 54 55 56 56 55 53 51 49 47 45 43 43 43 42 42 41 40 39 38 38 38 39 41 42 43 44 45 45 45 45 44 44 43 42 42 41 41 40 40 39 38 36 34 30 27 24 22 20 20 20 21 22 22 22 23 23 23 24 25 26 27 28 30 31 33 34 35 36
54 55 56 57 57 56 55 53 50 48 46 44 44 43 43 42 41 40 39 38 38 39 41 42 43 44 45 46 47 47 46 45 44 43 43 42 42 41 41 41 40 38 36 34 31 28 25 22 21 21 21 21 22 22 23 23 23 24 25 26 26 27 27 28 29 30 31 32 33
54 55 57 58 58 57 56 54 51 49 47 45 44 43 42 42 41 40 39 39 39 40 42 44 45 46 47 48 48 48 47 46 45 44 43 43 43 42 42 41 40 39 37 34 31 28 25 23 22 21 22 22 22 23 23 24 24 25 25 26 27 27 28 28 28 29 29 30 31
55 56 58 60 60 59 57 55 52 50 48 46 44 43 42 41 41 40 40 39 40 42 44 47 47 48 48 50 50 50 48 47 45 44 44 43 43 43 42 42 41 39 37 35 32 29 26 24 22 22 22 23 23 23 24 24 25 25 26 27 28 28 29 29 29 29 29 30 30
55 57 59 61 61 60 58 56 53 51 49 46 45 43 43 42 42 41 40 40 41 43 47 49 50 50 50 51 52 51 50 48 46 45 44 44 43 43 43 42 41 40 38 35 32 29 27 24 23 23 23 23 24 24 25 25 25 26 27 28 28 29 29 29 29 30 30 30 30
56 58 60 62 62 61 59 57 54 52 50 47 45 44 43 43 42 41 40 40 42 46 49 52 51 52 52 53 53 52 50 49 47 45 44 44 44 44 43 43 42 40 38 36 32 30 27 25 24 24 24 24 25 25 25 26 26 27 27 28 29 29 30 30 30 30 30 30 30
57 59 61 63 63 62 60 58 56 53 50 48 46 45 44 44 42 41 40 40 44 48 52 54 54 54 54 55 54 53 51 49 47 46 45 44 44 44 44 43 42 41 39 36 33 30 28 25 25 25 25 25 26 26 26 26 27 27 28 29 29 30 30 30 30 30 30 30 31
58 60 62 64 64 63 61 59 57 54 51 48 46 46 45 44 43 41 41 41 45 50 54 56 56 56 56 56 55 53 52 50 48 46 45 45 45 44 44 44 43 41 39 36 34 31 28 26 26 25 26 26 27 27 27 27 28 28 29 29 30 30 30 30 30 30 31 32 33
58 60 63 64 65 64 63 61 58 55 52 49 47 46 45 44 43 42 42 43 48 53 56 58 57 57 57 57 56 54 52 50 48 47 46 45 45 45 44 44 43 42 40 37 34 31 29 27 26 26 27 27 28 28 28 28 29 29 30 30 31 31 31 30 30 31 32 34 36
58 61 63 65 65 65 64 62 59 56 53 50 48 46 45 45 44 43 43 45 50 55 58 59 59 59 59 58 56 54 52 50 48 47 46 45 45 45 45 44 44 42 40 37 35 32 29 28 27 27 27 28 28 29 29 29 30 30 31 32 32 32 32 31 31 33 35 38 40
58 60 62 65 66 66 65 63 61 57 54 51 48 46 46 45 44 44 44 47 53 57 60 61 60 60 60 59 57 55 53 51 49 47 46 46 46 45 45 45 44 43 41 38 35 33 30 28 27 27 27 28 29 29 30 31 31 32 32 33 33 33 33 33 33 35 37 40 43
58 60 63 65 66 66 66 64 62 59 56 52 49 47 47 46 45 45 46 49 55 59 61 62 62 61 61 60 57 55 53 51 49 47 46 46 46 46 45 45 44 44 42 39 36 33 31 29 28 28 28 28 29 30 31 31 32 33 34 34 35 35 35 35 36 37 40 43 45
58 60 62 65 66 67 67 66 63 61 57 53 50 49 48 47 46 46 48 52 57 60 62 62 62 62 62 60 58 56 53 51 49 48 47 46 46 46 46 45 45 44 42 40 36 34 31 30 29 28 28 29 29 30 31 32 33 34 35 36 37 37 37 37 39 41 43 45 47
58 60 62 65 67 68 68 67 65 62 58 54 52 50 49 48 47 48 50 54 59 61 63 63 63 63 63 61 59 56 54 51 49 48 47 47 46 46 46 46 45 44 43 40 37 34 32 30 30 29 29 29 30 30 31 32 33 35 36 37 38 39 40 41 43 45 47 49 50
58 60 63 65 67 68 69 68 66 63 59 56 53 51 50 49 49 50 53 56 60 63 64 64 65 64 64 62 59 57 54 52 50 49 48 47 47 46 46 46 46 45 43 40 37 34 32 30 30 30 29 30 30 31 32 33 34 35 37 38 40 41 43 44 46 48 50 52 53
58 61 63 66 67 69 69 69 67 64 61 57 55 53 52 51 51 52 55 59 62 64 65 65 66 65 64 62 60 58 55 53 51 50 48 47 47 47 46 46 46 45 43 41 37 34 32 30 30 30 29 30 30 31 32 33 34 36 37 39 41 43 45 46 48 50 52 53 54
59 61 64 66 68 69 69 69 67 65 62 59 56 54 52 52 53 55 57 61 64 65 66 66 66 66 65 63 60 58 56 54 52 50 49 47 47 47 47 46 46 45 43 41 38 35 32 31 30 30 30 30 30 31 32 34 35 37 39 41 43 44 46 47 48 49 51 52 53
60 62 64 66 67 69 69 69 68 66 64 61 57 55 54 54 55 57 60 63 66 67 67 67 67 66 65 63 61 59 57 55 53 51 49 48 47 47 47 46 46 45 44 41 38 35 33 31 30 29 29 29 30 31 33 34 36 38 40 42 43 44 45 46 47 47 49 50 52
60 62 64 65 67 68 69 69 68 67 64 62 58 56 55 55 56 59 62 66 68 69 69 68 67 67 66 64 62 59 58 56 54 52 50 48 47 47 47 46 46 45 44 42 38 35 33 31 30 29 29 29 30 31 33 35 37 39 41 42 43 44 44 44 45 46 47 49 51
61 62 64 65 67 68 69 69 68 67 65 62 59 57 56 57 59 62 65 68 69 70 69 68 68 67 66 64 62 60 58 56 54 52 50 48 47 47 47 47 46 46 44 42 39 36 33 31 30 29 29 29 29 31 33 35 37 39 41 42 42 43 43 43 44 45 47 48 51
61 63 64 65 67 68 69 69 69 67 65 63 60 58 58 59 61 64 67 70 71 71 70 69 69 68 66 65 62 60 59 57 55 53 51 49 48 47 47 47 47 46 45 42 39 36 33 31 30 28 28 28 28 30 32 35 37 39 41 42 43 43 43 43 44 45 46 47 51
61 63 65 66 68 69 69 69 68 67 65 62 60 60 60 61 64 67 70 72 73 72 71 70 69 68 67 65 62 61 59 57 55 53 51 49 48 48 47 47 47 46 45 43 40 37 34 31 30 28 27 27 28 30 33 35 38 40 42 43 44 44 44 44 45 45 46 48 51
62 64 65 67 68 69 69 69 68 66 64 62 61 61 62 64 67 70 72 73 74 73 72 71 70 68 67 65 63 61 60 58 56 54 51 49 48 48 48 47 47 46 45 43 40 37 34 32 30 29 28 28 29 31 34 36 39 41 44 45 46 46 46 46 46 46 48 49 52
63 64 66 67 69 69 69 69 67 65 63 62 62 63 65 67 71 73 74 75 75 74 73 71 70 69 67 65 63 61 59 58 56 54 52 50 48 48 48 48 47 46 45 43 40 37 35 32 30 29 29 29 31 32 34 37 40 42 44 46 47 47 47 47 47 48 49 50 53
63 64 66 67 68 69 69 68 67 65 64 63 63 65 67 71 74 76 77 77 76 75 73 72 70 69 67 65 63 61 60 58 56 54 52 50 48 48 47 48 48 47 46 44 41 38 35 32 30 29 29 29 30 32 34 37 40 43 45 46 47 47 47 48 48 50 50 51 53
64 65 66 67 68 68 69 68 67 65 64 64 65 67 70 74 76 78 78 78 77 76 74 72 71 69 67 65 63 61 60 58 57 55 53 50 49 48 48 48 48 47 46 44 41 38 35 32 30 29 28 28 31 33 35 37 40 42 44 46 47 47 47 48 50 51 52 52 53
65 65 66 66 67 68 69 69 68 67 66 66 68 70 73 76 78 79 79 79 78 77 75 73 71 70 68 65 63 61 60 59 57 55 53 51 49 48 47 48 48 47 46 44 41 38 35 33 30 28 27 28 32 33 35 36 39 41 44 46 46 46 47 49 51 52 52 53 53
66 66 66 66 67 68 69 69 69 68 68 69 70 72 75 77 79 80 80 80 79 78 76 74 72 70 67 65 63 62 60 59 57 55 53 51 49 48 47 48 48 47 46 44 42 39 36 33 30 28 27 28 31 33 34 35 38 40 42 44 44 46 48 51 52 52 52 53 54
66 66 66 66 68 69 70 71 71 71 71 72 73 75 77 79 80 81 81 80 80 78 77 74 72 70 67 65 63 62 60 59 57 56 54 51 49 48 47 48 48 47 46 45 42 39 36 33 30 28 27 27 30 32 33 34 36 38 40 41 43 46 49 52 52 52 52 52 54
67 67 67 68 69 71 73 74 74 74 74 75 76 77 79 80 81 81 81 81 80 79 77 75 73 70 68 65 64 62 60 59 57 56 54 52 49 48 48 47 47 47 46 45 42 39 36 33 30 28 27 27 29 31 31 31 33 34 36 38 42 46 50 52 51 51 51 52 54
67 67 68 70 72 74 76 77 77 77 76 77 78 79 80 81 82 82 82 82 81 79 77 75 73 70 68 66 64 62 60 58 57 56 54 52 50 49 48 47 47 47 46 45 42 39 36 33 30 28 27 27 28 29 29 29 30 31 34 37 42 46 50 51 51 51 51 52 54
69 70 72 73 76 78 79 79 79 78 79 79 80 81 81 82 82 82 82 82 81 80 78 75 73 70 68 65 63 61 59 58 57 56 55 53 50 49 47 47 47 47 46 45 42 39 36 33 30 28 27 26 26 27 27 28 28 30 32 37 41 46 49 51 50 50 50 51 53
72 74 75 77 78 80 80 80 80 80 80 81 81 82 82 82 82 82 82 82 81 80 78 76 73 71 68 65 63 61 59 59 58 57 55 53 50 49 47 47 47 47 46 45 42 39 36 33 30 28 27 26 26 26 26 27 27 29 32 36 40 44 48 50 50 50 50 51 53
76 77 78 79 80 81 81 81 80 80 81 82 82 83 83 83 83 83 83 82 81 80 78 75 73 71 68 65 63 61 60 59 58 56 55 52 50 48 47 47 47 46 46 44 42 39 36 33 30 28 26 25 25 26 26 27 28 30 32 36 39 43 46 49 50 49 49 50 52
78 79 79 79 80 81 81 81 81 81 82 83 83 83 83 83 83 83 83 82 81 79 77 76 74 71 69 66 63 61 60 59 58 56 54 52 50 48 48 47 47 46 45 44 42 39 36 33 30 28 26 25 25 26 28 29 29 31 33 35 38 42 45 48 49 49 49 49 51
79 79 78 78 79 79 80 80 81 81 82 84 84 84 84 83 83 83 83 82 81 79 77 75 74 72 69 66 64 62 60 59 57 56 54 51 49 48 47 47 46 45 45 44 41 38 35 32 30 27 26 25 26 27 28 30 30 32 33 35 38 41 44 47 48 48 48 48 50
78 77 77 76 77 78 79 80 80 81 83 84 84 84 83 83 82 82 82 82 80 78 76 75 74 72 70 66 64 62 60 59 57 55 53 51 49 48 47 47 46 45 44 43 41 38 35 32 29 27 25 25 26 27 29 30 31 32 34 35 38 41 44 46 48 48 47 47 49
76 76 75 74 75 76 77 79 80 81 82 83 83 82 81 80 80 81 81 81 78 76 75 75 74 72 70 67 64 62 60 58 57 55 53 51 49 48 47 46 46 45 44 42 40 38 35 32 29 27 26 25 26 28 30 32 33 33 35 36 38 40 43 46 47 47 47 47 47